Time,TemperatureF,DewpointF,PressureIn,WindDirection,WindDirectionDegrees,WindSpeedMPH,WindSpeedGustMPH,Humidity,HourlyPrecipIn,Conditions,Clouds,dailyrainin,SolarRadiationWatts/m^2,SoftwareType,DateUTC
2013-01-09 00:22:00,40.0,40.0,-100.00,SE,129,1.0,4.0,100,0.00,,,0.00,0.000000,,2013-01-09 08:22:00,
2013-01-09 00:32:00,40.0,40.0,-100.00,SE,129,1.0,4.0,100,0.00,,,0.00,0.000000,,2013-01-09 08:32:00,
2013-01-09 00:42:00,40.0,40.0,-100.00,SE,129,1.0,4.0,100,0.00,,,0.00,0.000000,,2013-01-09 08:42:00,
2013-01-09 00:52:00,40.0,40.0,-100.00,SE,129,1.0,4.0,100,0.00,,,0.00,0.000000,,2013-01-09 08:52:00,
2013-01-09 01:22:00,39.0,39.0,-100.00,SE,129,2.0,3.0,100,0.00,,,0.00,0.000000,,2013-01-09 09:22:00,
2013-01-09 01:32:00,39.0,39.0,-100.00,SE,129,2.0,3.0,100,0.00,,,0.00,0.000000,,2013-01-09 09:32:00,
2013-01-09 01:42:00,39.0,39.0,-100.00,SE,129,2.0,3.0,100,0.00,,,0.00,0.000000,,2013-01-09 09:42:00,
2013-01-09 01:53:00,39.0,39.0,-100.00,SE,129,2.0,3.0,100,0.00,,,0.00,0.000000,,2013-01-09 09:53:00,
2013-01-09 02:22:00,40.0,40.0,-100.00,ESE,120,2.0,4.0,100,0.00,,,0.00,0.000000,,2013-01-09 10:22:00,
2013-01-09 02:32:00,40.0,40.0,-100.00,ESE,120,2.0,4.0,100,0.00,,,0.00,0.000000,,2013-01-09 10:32:00,
2013-01-09 02:42:00,40.0,40.0,-100.00,ESE,120,2.0,4.0,100,0.00,,,0.00,0.000000,,2013-01-09 10:42:00,
2013-01-09 02:52:00,40.0,40.0,-100.00,ESE,120,2.0,4.0,100,0.00,,,0.00,0.000000,,2013-01-09 10:52:00,
2013-01-09 03:22:00,40.0,40.0,-100.00,South,176,3.0,6.0,100,0.00,,,0.00,0.000000,,2013-01-09 11:22:00,
2013-01-09 03:32:00,40.0,40.0,-100.00,South,176,3.0,6.0,100,0.00,,,0.00,0.000000,,2013-01-09 11:32:00,
2013-01-09 03:42:00,40.0,40.0,-100.00,South,176,3.0,6.0,100,0.00,,,0.00,0.000000,,2013-01-09 11:42:00,
2013-01-09 03:52:00,40.0,40.0,-100.00,South,176,3.0,6.0,100,0.00,,,0.00,0.000000,,2013-01-09 11:52:00,
2013-01-09 04:22:00,41.0,40.0,-100.00,WNW,288,3.0,7.0,97,0.00,,,0.00,0.000000,,2013-01-09 12:22:00,
2013-01-09 04:33:00,41.0,40.0,-100.00,WNW,288,3.0,7.0,97,0.00,,,0.00,0.000000,,2013-01-09 12:33:00,
2013-01-09 04:42:00,41.0,40.0,-100.00,WNW,288,3.0,7.0,97,0.00,,,0.00,0.000000,,2013-01-09 12:42:00,
2013-01-09 04:52:00,41.0,40.0,-100.00,WNW,288,3.0,7.0,97,0.00,,,0.00,0.000000,,2013-01-09 12:52:00,
2013-01-09 05:22:00,40.0,39.0,-100.00,ESE,118,2.0,5.0,96,0.00,,,0.00,0.000000,,2013-01-09 13:22:00,
2013-01-09 05:32:00,40.0,39.0,-100.00,ESE,118,2.0,5.0,96,0.00,,,0.00,0.000000,,2013-01-09 13:32:00,
2013-01-09 05:42:00,40.0,39.0,-100.00,ESE,118,2.0,5.0,96,0.00,,,0.00,0.000000,,2013-01-09 13:42:00,
2013-01-09 05:52:00,40.0,39.0,-100.00,ESE,118,2.0,5.0,96,0.00,,,0.00,0.000000,,2013-01-09 13:52:00,
2013-01-09 06:22:00,38.0,38.0,-100.00,SE,145,3.0,5.0,100,0.00,,,-99.99,0.000000,,2013-01-09 14:22:00,
2013-01-09 06:33:00,38.0,38.0,-100.00,SE,145,3.0,5.0,100,0.00,,,-99.99,0.000000,,2013-01-09 14:33:00,
2013-01-09 06:43:00,38.0,38.0,-100.00,SE,145,3.0,5.0,100,0.00,,,-99.99,0.000000,,2013-01-09 14:43:00,
2013-01-09 06:52:00,38.0,38.0,-100.00,SE,145,3.0,5.0,100,0.00,,,-99.99,0.000000,,2013-01-09 14:52:00,
2013-01-09 07:22:00,38.0,38.0,-100.00,South,183,1.0,4.0,100,0.00,,,0.00,0.000000,,2013-01-09 15:22:00,
2013-01-09 07:33:00,38.0,38.0,-100.00,South,183,1.0,4.0,100,0.00,,,0.00,0.000000,,2013-01-09 15:33:00,
2013-01-09 07:42:00,38.0,38.0,-100.00,South,183,1.0,4.0,100,0.00,,,0.00,0.000000,,2013-01-09 15:42:00,
2013-01-09 07:52:00,38.0,38.0,-100.00,South,183,1.0,4.0,100,0.00,,,0.00,0.000000,,2013-01-09 15:52:00,
2013-01-09 08:22:00,38.0,38.0,-100.00,SE,141,2.0,4.0,100,0.00,,,0.00,10.000000,,2013-01-09 16:22:00,
2013-01-09 08:33:00,38.0,38.0,-100.00,SE,141,2.0,4.0,100,0.00,,,0.00,10.000000,,2013-01-09 16:33:00,
2013-01-09 08:42:00,38.0,38.0,-100.00,SE,141,2.0,4.0,100,0.00,,,0.00,10.000000,,2013-01-09 16:42:00,
2013-01-09 08:52:00,38.0,38.0,-100.00,SE,141,2.0,4.0,100,0.00,,,0.00,10.000000,,2013-01-09 16:52:00,
2013-01-09 09:22:00,40.0,40.0,-100.00,NNE,20,1.0,5.0,100,0.00,,,-99.99,83.000000,,2013-01-09 17:22:00,
2013-01-09 09:32:00,40.0,40.0,-100.00,NNE,20,1.0,5.0,100,0.00,,,-99.99,83.000000,,2013-01-09 17:32:00,
2013-01-09 09:43:00,40.0,40.0,-100.00,NNE,20,1.0,5.0,100,0.00,,,-99.99,83.000000,,2013-01-09 17:43:00,
2013-01-09 09:52:00,40.0,40.0,-100.00,NNE,20,1.0,5.0,100,0.00,,,-99.99,83.000000,,2013-01-09 17:52:00,
2013-01-09 10:23:00,44.0,42.0,-100.00,ESE,114,2.0,5.0,94,0.00,,,0.00,153.000000,,2013-01-09 18:23:00,
2013-01-09 10:33:00,44.0,42.0,-100.00,ESE,114,2.0,5.0,94,0.00,,,0.00,153.000000,,2013-01-09 18:33:00,
2013-01-09 10:43:00,44.0,42.0,-100.00,ESE,114,2.0,5.0,94,0.00,,,0.00,153.000000,,2013-01-09 18:43:00,
2013-01-09 10:52:00,44.0,42.0,-100.00,ESE,114,2.0,5.0,94,0.00,,,0.00,153.000000,,2013-01-09 18:52:00,
2013-01-09 11:22:00,48.0,43.0,-100.00,West,274,1.0,5.0,82,0.00,,,0.00,205.000000,,2013-01-09 19:22:00,
2013-01-09 11:33:00,48.0,43.0,-100.00,West,274,1.0,5.0,82,0.00,,,0.00,205.000000,,2013-01-09 19:33:00,
2013-01-09 11:43:00,48.0,43.0,-100.00,West,274,1.0,5.0,82,0.00,,,0.00,205.000000,,2013-01-09 19:43:00,
2013-01-09 11:52:00,48.0,43.0,-100.00,West,274,1.0,5.0,82,0.00,,,0.00,205.000000,,2013-01-09 19:52:00,
2013-01-09 12:22:00,49.0,43.0,-100.00,East,87,2.0,4.0,81,0.00,,,0.00,167.000000,,2013-01-09 20:22:00,
2013-01-09 12:33:00,49.0,43.0,-100.00,East,87,2.0,4.0,81,0.00,,,0.00,167.000000,,2013-01-09 20:33:00,
2013-01-09 12:42:00,49.0,43.0,-100.00,East,87,2.0,4.0,81,0.00,,,0.00,167.000000,,2013-01-09 20:42:00,
2013-01-09 12:52:00,49.0,43.0,-100.00,East,87,2.0,4.0,81,0.00,,,0.00,167.000000,,2013-01-09 20:52:00,
2013-01-09 13:22:00,49.0,43.0,-100.00,SE,137,4.0,6.0,79,0.00,,,0.00,184.000000,,2013-01-09 21:22:00,
2013-01-09 13:33:00,49.0,43.0,-100.00,SE,137,4.0,6.0,79,0.00,,,0.00,184.000000,,2013-01-09 21:33:00,
2013-01-09 13:42:00,49.0,43.0,-100.00,SE,137,4.0,6.0,79,0.00,,,0.00,184.000000,,2013-01-09 21:42:00,
2013-01-09 13:52:00,49.0,43.0,-100.00,SE,137,4.0,6.0,79,0.00,,,0.00,184.000000,,2013-01-09 21:52:00,
2013-01-09 14:22:00,50.0,43.0,-100.00,SE,138,4.0,7.0,78,0.00,,,0.00,160.000000,,2013-01-09 22:22:00,
2013-01-09 14:33:00,50.0,43.0,-100.00,SE,138,4.0,7.0,78,0.00,,,0.00,160.000000,,2013-01-09 22:33:00,
2013-01-09 14:42:00,50.0,43.0,-100.00,SE,138,4.0,7.0,78,0.00,,,0.00,160.000000,,2013-01-09 22:42:00,
2013-01-09 14:52:00,50.0,43.0,-100.00,SE,138,4.0,7.0,78,0.00,,,0.00,160.000000,,2013-01-09 22:52:00,
2013-01-09 15:22:00,48.0,40.0,-100.00,SSW,202,5.0,11.0,75,0.00,,,0.00,104.000000,,2013-01-09 23:22:00,
2013-01-09 15:32:00,48.0,40.0,-100.00,SSW,202,5.0,11.0,75,0.00,,,0.00,104.000000,,2013-01-09 23:32:00,
2013-01-09 15:42:00,48.0,40.0,-100.00,SSW,202,5.0,11.0,75,0.00,,,0.00,104.000000,,2013-01-09 23:42:00,
2013-01-09 15:52:00,48.0,40.0,-100.00,SSW,202,5.0,11.0,75,0.00,,,0.00,104.000000,,2013-01-09 23:52:00,
2013-01-09 16:22:00,46.0,42.0,-100.00,SE,125,6.0,11.0,85,0.00,,,0.00,35.000000,,2013-01-10 00:22:00,
2013-01-09 16:32:00,46.0,42.0,-100.00,SE,125,6.0,11.0,85,0.00,,,0.00,35.000000,,2013-01-10 00:32:00,
2013-01-09 16:42:00,46.0,42.0,-100.00,SE,125,6.0,11.0,85,0.00,,,0.00,35.000000,,2013-01-10 00:42:00,
2013-01-09 16:52:00,46.0,42.0,-100.00,SE,125,6.0,11.0,85,0.00,,,0.00,35.000000,,2013-01-10 00:52:00,
2013-01-09 17:22:00,45.0,44.0,-100.00,SSE,167,8.0,16.0,96,0.00,,,0.00,5.000000,,2013-01-10 01:22:00,
2013-01-09 17:32:00,45.0,44.0,-100.00,SSE,167,8.0,16.0,96,0.00,,,0.00,5.000000,,2013-01-10 01:32:00,
2013-01-09 17:42:00,45.0,44.0,-100.00,SSE,167,8.0,16.0,96,0.00,,,0.00,5.000000,,2013-01-10 01:42:00,
2013-01-09 17:52:00,45.0,44.0,-100.00,SSE,167,8.0,16.0,96,0.00,,,0.00,5.000000,,2013-01-10 01:52:00,
2013-01-09 18:22:00,45.0,45.0,-100.00,ESE,110,3.0,11.0,100,0.10,,,0.10,0.000000,,2013-01-10 02:22:00,
2013-01-09 18:32:00,45.0,45.0,-100.00,ESE,110,3.0,11.0,100,0.10,,,0.10,0.000000,,2013-01-10 02:32:00,
2013-01-09 18:42:00,45.0,45.0,-100.00,ESE,110,3.0,11.0,100,0.10,,,0.10,0.000000,,2013-01-10 02:42:00,
2013-01-09 18:52:00,45.0,45.0,-100.00,ESE,110,3.0,11.0,100,0.10,,,0.10,0.000000,,2013-01-10 02:52:00,
2013-01-09 19:22:00,45.0,45.0,-100.00,SSE,149,6.0,10.0,100,0.04,,,-99.99,0.000000,,2013-01-10 03:22:00,
2013-01-09 19:32:00,45.0,45.0,-100.00,SSE,149,6.0,10.0,100,0.04,,,-99.99,0.000000,,2013-01-10 03:32:00,
2013-01-09 19:42:00,45.0,45.0,-100.00,SSE,149,6.0,10.0,100,0.04,,,-99.99,0.000000,,2013-01-10 03:42:00,
2013-01-09 19:52:00,45.0,45.0,-100.00,SSE,149,6.0,10.0,100,0.04,,,-99.99,0.000000,,2013-01-10 03:52:00,
2013-01-09 20:22:00,43.0,43.0,-100.00,SW,230,12.0,20.0,100,0.10,,,0.24,0.000000,,2013-01-10 04:22:00,
2013-01-09 20:32:00,43.0,43.0,-100.00,SW,230,12.0,20.0,100,0.10,,,0.24,0.000000,,2013-01-10 04:32:00,
2013-01-09 20:42:00,43.0,43.0,-100.00,SW,230,12.0,20.0,100,0.10,,,0.24,0.000000,,2013-01-10 04:42:00,
2013-01-09 20:52:00,43.0,43.0,-100.00,SW,230,12.0,20.0,100,0.10,,,0.24,0.000000,,2013-01-10 04:52:00,
2013-01-09 21:22:00,41.0,38.0,-100.00,SSW,211,7.0,17.0,89,0.05,,,0.29,0.000000,,2013-01-10 05:22:00,
2013-01-09 21:33:00,41.0,38.0,-100.00,SSW,211,7.0,17.0,89,0.05,,,0.29,0.000000,,2013-01-10 05:33:00,
2013-01-09 21:42:00,41.0,38.0,-100.00,SSW,211,7.0,17.0,89,0.05,,,0.29,0.000000,,2013-01-10 05:42:00,
2013-01-09 21:52:00,41.0,38.0,-100.00,SSW,211,7.0,17.0,89,0.05,,,0.29,0.000000,,2013-01-10 05:52:00,
2013-01-09 22:22:00,40.0,37.0,-100.00,SSW,205,5.0,12.0,90,0.01,,,0.30,0.000000,,2013-01-10 06:22:00,
2013-01-09 22:32:00,40.0,37.0,-100.00,SSW,205,5.0,12.0,90,0.01,,,0.30,0.000000,,2013-01-10 06:32:00,
2013-01-09 22:42:00,40.0,37.0,-100.00,SSW,205,5.0,12.0,90,0.01,,,0.30,0.000000,,2013-01-10 06:42:00,
2013-01-09 22:52:00,40.0,37.0,-100.00,SSW,205,5.0,12.0,90,0.01,,,0.30,0.000000,,2013-01-10 06:52:00,
2013-01-09 23:22:00,38.0,38.0,-100.00,SE,126,3.0,6.0,99,0.01,,,-99.99,0.000000,,2013-01-10 07:22:00,
2013-01-09 23:32:00,38.0,38.0,-100.00,SE,126,3.0,6.0,99,0.01,,,-99.99,0.000000,,2013-01-10 07:32:00,
2013-01-09 23:42:00,38.0,38.0,-100.00,SE,126,3.0,6.0,99,0.01,,,-99.99,0.000000,,2013-01-10 07:42:00,
2013-01-09 23:52:00,38.0,38.0,-100.00,SE,126,3.0,6.0,99,0.01,,,-99.99,0.000000,,2013-01-10 07:52:00,